Location: Presov
(49.0000°N, 21.2500°E)
Time: 23:55:36
(UTC+02:00)

Transit 2A Rocket - Pass Details

Date: 22 April 2021
Orbit: 594 x 908 km, 66.7° (Epoch: 05 May)

Event Time Altitude Azimuth Distance (km) Brightness Sun altitude
Rises 23:25:28 0° 325° (NW) 2,872 9.1 -26.7°
Reaches altitude 10° 23:27:41 10° 327° (NNW) 1,987 8.1 -26.8°
Enters shadow 23:31:30 63° 353° (N) 717 5.0 -27.0°
Maximum altitude 23:32:08 76° 53° (NE) 669 - -27.0°
Drops below altitude 10° 23:36:55 10° 140° (SE) 2,123 - -27.2°
Sets 23:39:20 0° 142° (SE) 3,086 - -27.3°
